FENGYUN 1C DEB, 31628

Orbit data source: Space-Track

FENGYUN 1C DEB, 31628 is space debris in SSO originally from a launch on Mon, 10 May 1999 UTC launched from the Taiyaun Space Center, China (TSC). Fengyun 1C debris stems from the Chinese weather satellite Fengyun-1C, which was intentionally destroyed by a Chinese anti-satellite missile in 2007. This event dramatically increased the amount of space debris, with thousands of trackable fragments posing hazards to satellites and human spaceflight. The Fengyun 1C debris cloud has become a focal point in discussions about space sustainability and the need for international regulations to prevent the creation of new debris.

Loading next visibility...
Identifier
31628, 1999-025CAJ
Orbit
SSO
Country
Flag of CNCN / PRC
Related business
Manufacturer
Unknown
Mission
Spacecraft
Bus & Motor
Unknown
Mass
Unknown
Launch date (UTC)
1999-05-10 (27 years ago)
Launch vehicle
Unknown
Launch site
Taiyaun Space Center, China (TSC)
Object type
Payload
Rocket body
Debris
Shape & HBR
Unknown shape, 0.1 m
Radar Cross Section
Small (<0.1 m²)

Expand to show TLE details & history
Last TLE update: 22 hours ago

TLE from 22 hours ago
0 FENGYUN 1C DEB
1 31628U 99025CAJ 26145.48228219  .00001529  00000-0  12126-2 0  9990
2 31628 102.2686  55.9682 0164866 188.0923 171.7556 13.87629202955702
Epoch: 2026-05-25T11:34Z
TLE epoch observation values (Epoch: 2026-05-25T11:34:29.181Z)
Latitude
Longitude
-0.72283°
Altitude
1,059.104 km
Speed
7.262 km/s
True Right ascension
03h 43m 52s
True Declination
0° 00' 00"
Sunlit
Object was in daylight at epoch
Visualization orbit readout
Latitude
Unknown
Longitude
Unknown
Altitude
Unknown
Speed
Unknown
Apparent Right ascension
Unknown
Apparent Declination
Unknown
Sunlit
N/A
Visualization observer readout
Local Sidereal Time
19:08:41
Azimuth
Unknown
Elevation
Unknown
Doppler factor
Unknown
Orbital elements
Apogee altitude
1,054.911 km
Perigee altitude
813.794 km
Semi-major axis
7,312.49 km
Eccentricity
0.01649
Inclination
102.2686°
RAAN
55.9682°
Arg. of periapsis
188.0923°
True anomaly
172.02109°
Mean anomaly
171.7556°
Eccentric anomaly
171.88888°
Mean motion
3.47093 °/min
Orbital period
103.72 mins
BSTAR
0.0012126
Loading maneuver chart data...
Computing Atmospheric mass density...

Documentation

Showing up to 5 results
|